Theta_e
311 312 312 312 312 312 312 311 311 310 310 310 310 310 310 310 311 310 311 311 312 312 312 312 312 312 313 313 313 313 312 306 304 302 302 304 316 319 322 325 328 328 327 313 306 306 306 302 302 304 303 302 301 301 304 305 304 301 293 289 287 288 290 293 294 295 297 297 298 300 301 311 319 326 330 335 333 333 334 334 338 341 340 342 343 346 345 341
310 311 312 312 312 312 311 311 311 311 310 310 310 310 310 310 311 311 312 313 312 312 312 312 312 312 312 312 313 313 309 305 302 302 302 312 321 322 324 324 326 327 324 306 301 301 305 302 299 302 300 299 305 300 304 299 305 296 291 289 288 290 293 299 298 299 297 298 300 301 301 300 317 326 325 327 327 329 330 333 336 335 338 342 343 344 343 341
311 311 311 311 311 311 311 311 311 311 311 310 310 310 310 310 310 311 311 312 311 311 312 312 312 312 312 312 312 313 307 301 301 299 303 319 320 321 323 325 327 330 312 301 301 302 305 305 301 300 298 297 300 300 303 298 302 297 293 288 291 295 296 298 299 299 300 300 300 300 300 302 307 320 326 326 326 330 328 328 332 332 333 337 341 343 342 341
311 311 311 311 311 311 311 311 311 311 311 310 310 309 309 309 310 310 310 311 312 312 311 311 312 312 312 312 312 309 304 300 295 299 305 320 322 322 322 324 327 328 309 302 302 302 303 301 300 301 299 297 298 302 299 300 300 294 293 291 292 295 295 297 299 300 301 301 301 300 300 301 303 316 327 327 324 325 329 333 332 332 334 337 340 341 342 341
311 311 311 311 311 311 311 311 311 311 311 310 310 310 310 309 309 310 310 310 311 311 311 311 311 311 311 312 312 307 300 286 291 302 306 327 331 325 324 325 331 317 303 301 301 301 300 299 300 301 299 295 299 300 298 300 301 297 293 295 295 296 296 299 300 300 301 301 301 300 299 299 303 320 326 324 319 321 328 333 336 337 338 338 339 340 341 340
311 311 311 311 310 310 311 311 311 310 310 310 311 310 309 309 309 309 310 310 310 310 310 311 310 310 311 312 307 304 298 283 297 305 329 329 332 329 326 328 330 308 302 301 299 299 299 299 297 297 296 296 296 296 295 301 301 292 295 295 296 297 296 300 302 300 299 300 299 299 301 301 315 318 320 318 319 324 334 337 338 339 340 340 341 340 339 339
311 311 311 311 311 310 310 310 310 310 310 310 310 310 309 309 309 309 310 310 310 310 310 310 310 311 310 311 304 302 297 298 303 308 324 331 332 330 329 334 328 305 300 298 298 297 296 296 299 297 298 296 297 297 300 300 299 297 294 295 297 299 298 300 300 300 301 300 300 302 301 300 304 314 321 324 328 334 337 339 339 340 341 341 338 339 338 338
311 311 311 310 310 311 310 310 310 310 310 310 310 310 309 309 309 309 310 311 310 310 310 310 310 310 310 304 300 297 297 296 300 307 330 330 326 332 326 313 305 302 300 299 297 296 296 295 296 299 296 295 296 298 300 298 298 295 295 297 298 298 298 300 298 300 301 301 300 301 299 299 317 320 326 325 331 335 337 338 339 339 339 339 338 338 338 337
311 311 310 310 310 310 310 310 310 310 310 310 310 309 309 310 309 309 309 311 310 310 309 309 309 309 310 303 297 291 291 303 306 308 322 322 318 311 307 304 302 301 300 300 298 297 297 295 297 299 293 295 299 298 298 296 292 296 296 298 299 299 300 299 298 299 300 301 302 300 298 304 322 326 324 328 332 335 337 337 337 338 337 337 337 336 336 335
311 310 310 310 310 310 310 310 310 310 310 310 310 309 309 309 309 309 309 309 310 309 309 309 309 309 304 300 297 287 296 305 308 308 318 315 314 308 305 306 302 301 300 299 298 298 297 296 298 300 300 297 299 297 299 296 292 296 297 298 298 299 299 299 298 299 299 301 300 299 298 303 315 319 313 329 332 334 335 335 336 335 335 335 335 335 336 335
311 311 310 310 310 310 309 309 310 310 310 310 310 310 309 309 309 309 309 309 309 309 308 308 309 307 300 300 293 288 303 307 309 308 309 311 311 306 304 304 302 300 300 298 298 300 300 299 300 301 299 295 297 295 297 296 299 298 297 296 296 298 298 298 297 297 298 300 299 300 299 299 303 319 319 326 332 334 332 333 333 334 334 334 335 335 335 335
312 311 311 310 310 310 309 309 310 310 310 310 310 309 309 309 309 309 309 309 309 309 308 308 308 304 301 297 294 294 309 309 308 307 307 307 307 310 306 306 303 301 299 297 298 300 301 301 301 300 293 298 292 296 296 299 299 298 297 293 293 295 296 296 296 297 299 299 301 299 297 297 297 314 323 328 331 332 332 331 332 332 333 334 334 334 334 333
311 311 311 310 310 310 310 309 310 310 309 309 309 309 309 309 308 309 308 308 309 309 309 308 307 304 299 291 294 304 307 307 307 308 307 306 307 307 310 308 304 303 301 298 298 300 301 300 301 297 298 297 295 291 297 299 297 297 297 292 292 292 292 296 297 297 298 299 300 299 288 288 293 316 325 328 329 330 329 329 330 331 332 332 332 332 331 330
310 311 311 311 310 310 309 309 309 309 309 309 309 309 309 309 308 309 308 308 309 308 308 308 305 302 297 292 299 306 308 307 307 304 302 305 302 302 305 310 306 304 303 300 301 300 301 300 300 299 301 296 293 299 297 296 297 291 293 294 288 289 286 293 298 295 297 299 299 300 289 288 292 313 325 327 329 328 326 328 328 330 329 329 330 329 327 327
312 312 311 310 310 310 309 309 309 308 309 308 308 308 308 308 308 308 309 308 308 308 308 307 304 299 294 295 304 307 316 314 308 306 305 301 299 299 302 307 306 305 304 303 302 302 302 301 300 296 293 299 298 295 291 290 290 292 288 284 286 287 285 291 295 295 295 298 298 298 290 290 293 314 324 327 328 328 326 327 327 328 327 328 327 326 326 328
311 310 311 311 310 310 309 309 308 308 307 308 308 308 308 308 308 308 309 308 309 308 307 300 299 297 294 288 295 311 303 303 302 308 308 303 301 298 302 302 306 306 306 305 306 307 305 302 296 294 295 296 293 289 287 287 285 287 287 284 288 287 287 291 295 295 297 297 298 297 287 290 292 308 324 327 327 327 325 325 326 326 326 326 325 326 326 326
311 311 311 310 310 310 309 308 308 307 307 307 308 308 308 308 308 308 308 308 306 307 302 296 299 299 286 296 306 298 297 302 306 305 304 303 302 301 301 300 302 305 306 306 305 305 303 301 299 297 296 291 288 290 285 282 282 282 286 284 286 287 287 287 290 294 296 296 293 295 293 291 292 307 322 326 327 326 324 324 325 325 325 325 326 326 325 325
310 310 310 310 310 310 309 308 307 307 307 307 307 306 305 307 309 308 306 306 304 303 302 302 299 294 291 299 291 294 301 300 303 305 304 302 303 301 300 298 302 303 303 302 303 300 300 295 297 288 292 291 290 287 283 280 284 282 284 286 286 288 289 289 289 292 295 295 294 293 293 294 294 311 319 323 326 325 323 323 325 324 325 325 325 325 325 325
309 310 310 310 310 309 309 308 307 307 307 307 307 307 307 308 306 304 301 300 295 290 285 289 290 281 284 294 298 298 301 304 304 305 301 302 303 302 302 300 298 300 296 296 294 297 297 294 296 289 286 286 287 288 286 287 288 288 288 286 286 286 286 286 291 294 295 292 292 292 291 294 296 312 317 321 323 322 322 323 324 324 325 325 325 326 325 324
309 310 309 309 309 309 309 308 307 307 307 304 301 300 297 294 293 291 296 297 293 293 291 293 294 294 294 294 298 302 306 306 300 301 303 303 302 299 298 298 295 297 295 291 293 295 296 289 287 287 285 288 289 290 290 291 291 291 290 290 287 287 289 292 292 295 296 293 292 292 293 294 294 308 314 317 317 318 320 323 323 323 324 325 326 326 325 323
308 308 308 309 310 309 308 308 307 307 306 302 300 296 287 289 288 288 293 293 295 296 294 295 295 294 293 297 299 299 295 297 301 299 302 305 301 297 294 294 290 288 290 294 292 297 296 287 287 288 289 290 290 291 291 291 291 290 289 288 286 288 286 291 292 295 296 294 292 292 293 293 293 299 314 313 314 314 321 321 322 323 323 325 325 324 323 323
306 307 308 308 309 309 308 308 308 306 307 301 299 293 294 295 298 298 294 287 294 296 296 296 297 295 299 299 300 301 299 294 296 298 302 303 298 293 292 292 288 285 291 292 292 290 289 287 289 291 292 292 292 292 292 291 290 290 288 287 286 287 290 292 293 295 295 294 291 291 292 293 294 296 312 312 312 317 322 323 323 322 322 323 324 323 321 322
306 307 307 307 308 309 308 308 307 307 301 298 295 295 293 299 302 301 298 292 289 296 296 295 293 294 294 298 299 299 292 291 290 296 298 301 296 295 292 290 286 288 291 292 288 287 285 288 291 294 293 292 292 291 291 291 291 288 287 286 285 289 289 284 289 293 295 294 290 291 292 292 294 295 304 313 314 317 322 324 324 324 322 322 322 322 322 322
306 307 307 307 308 308 308 307 307 301 297 297 297 296 300 301 302 301 294 286 286 292 295 297 296 296 295 295 299 295 291 291 293 293 301 300 294 296 291 290 287 288 289 291 290 288 288 291 295 294 293 292 291 291 289 288 287 289 288 287 287 288 289 289 288 292 294 295 293 292 291 289 292 294 301 310 315 317 318 320 321 322 323 324 324 324 324 324
306 306 306 307 308 309 307 305 297 297 299 298 296 300 301 302 301 301 291 286 287 288 298 297 299 298 299 305 303 295 293 293 294 298 300 300 296 294 291 293 289 286 290 292 290 288 289 293 295 293 292 291 291 289 289 288 284 286 289 290 290 290 289 291 292 291 288 288 293 292 283 285 286 296 304 309 313 314 317 317 318 320 321 323 323 324 326 327
304 305 306 307 307 307 307 298 296 297 297 294 297 301 302 302 302 301 291 281 277 286 293 286 301 294 305 297 300 297 297 290 297 298 300 301 302 296 293 289 291 286 290 291 290 289 290 294 294 293 292 291 290 289 290 290 286 284 286 291 292 291 291 291 291 291 283 283 291 293 285 279 286 297 305 309 311 311 314 315 317 319 320 322 322 323 323 324
304 304 305 306 306 307 298 293 300 298 293 295 301 302 302 303 303 299 285 276 273 286 285 293 294 294 302 299 298 298 281 286 298 299 298 304 297 300 290 286 290 293 295 295 289 287 294 293 293 293 292 290 289 288 291 290 286 284 290 292 292 291 291 291 291 290 285 291 292 293 288 281 284 294 307 310 310 310 311 313 316 318 319 320 321 322 323 325
303 304 305 306 307 306 298 299 297 293 294 299 302 302 302 302 302 299 285 271 269 291 286 290 294 303 300 299 300 291 290 294 290 295 299 301 299 295 291 287 288 289 294 292 283 291 293 290 291 291 291 290 288 291 292 291 288 288 292 293 291 292 291 292 291 288 288 289 282 287 290 283 282 292 306 310 306 307 309 312 314 315 317 318 320 321 322 323
303 304 304 305 306 307 305 298 297 294 298 301 301 300 301 302 299 289 279 270 287 286 301 288 304 298 296 298 294 294 293 296 289 295 298 299 299 294 288 288 291 291 294 293 286 291 294 294 293 293 291 289 291 292 293 291 288 292 293 294 294 293 293 292 288 288 288 286 280 286 288 279 283 293 302 307 306 305 308 311 312 314 316 317 318 319 321 323
303 303 304 305 305 303 302 302 298 301 302 302 301 300 301 298 291 281 276 269 290 281 291 292 293 289 294 290 290 292 290 292 295 295 296 293 295 296 294 295 291 291 290 293 291 292 294 299 298 294 291 293 293 293 294 292 293 293 293 292 291 290 289 289 290 286 283 280 283 288 289 285 280 293 301 302 304 307 309 310 312 314 315 317 319 320 322 324
303 304 305 305 299 302 300 295 298 302 302 301 301 300 296 290 282 276 270 278 290 288 292 289 288 293 289 287 285 290 290 291 292 293 290 295 291 293 292 289 293 290 288 289 289 293 294 294 294 294 297 296 295 292 293 294 294 293 290 289 288 285 287 287 284 284 280 274 284 287 288 288 282 286 301 304 304 311 311 310 312 313 315 317 318 321 323 324
303 304 305 302 303 305 295 294 300 303 302 303 302 294 287 277 282 274 275 294 279 284 285 285 290 289 288 289 287 287 286 289 291 290 288 289 287 287 288 283 286 279 280 282 284 290 290 291 293 295 300 295 292 290 290 292 293 291 289 287 283 276 279 277 282 277 276 278 283 286 288 286 283 289 299 305 305 312 313 314 314 316 316 316 318 321 322 322
302 303 305 305 305 301 300 301 302 303 304 302 298 291 281 274 270 278 280 285 280 289 287 291 288 289 288 287 285 288 290 285 290 289 291 290 286 288 289 288 287 283 276 283 284 284 286 291 292 293 295 297 294 287 284 286 289 288 287 282 280 277 276 271 275 274 277 283 287 287 289 284 286 299 309 307 307 313 314 316 318 318 316 316 319 320 320 320
302 304 301 304 304 303 302 303 303 302 301 299 292 286 281 275 274 286 282 284 285 294 293 290 289 288 288 283 285 288 284 289 288 287 290 287 287 284 287 289 288 286 287 285 281 284 278 282 289 291 288 295 294 292 290 287 286 289 289 288 283 279 278 273 276 275 276 278 284 289 285 278 284 296 311 307 312 315 317 318 319 318 318 319 319 319 318 318
303 303 303 303 304 304 303 302 301 301 299 293 287 282 275 274 280 280 283 286 290 292 290 294 289 286 284 285 287 289 288 284 289 287 287 286 284 285 285 287 289 289 288 282 286 283 285 284 287 294 293 296 292 294 293 291 288 287 288 289 284 285 281 280 278 278 280 280 281 286 288 296 297 308 312 312 313 315 317 317 317 316 317 317 316 316 316 316
302 300 302 298 298 300 301 302 301 299 295 289 282 277 275 280 278 286 285 292 291 288 289 292 291 284 282 282 286 286 291 285 286 286 285 287 288 286 289 289 289 290 286 282 285 281 285 283 292 294 295 295 295 295 293 294 283 287 288 285 287 290 288 281 280 283 278 280 279 290 296 301 306 308 310 311 311 311 314 314 314 314 315 315 314 314 315 315
298 299 295 298 298 301 301 302 301 297 293 286 278 276 282 284 287 287 291 289 290 291 290 283 287 283 279 279 281 285 286 287 286 284 280 288 285 289 288 290 292 291 291 289 286 288 281 281 290 291 291 294 296 296 294 295 292 287 284 286 291 293 291 284 276 278 274 273 278 292 292 296 297 290 307 307 307 308 310 311 312 312 313 312 312 313 313 314
297 297 297 295 297 299 300 302 299 295 292 287 279 282 286 282 290 290 292 291 292 292 288 286 286 291 281 280 280 284 286 283 282 284 280 286 281 292 289 290 292 292 293 293 288 288 290 283 289 292 293 295 296 295 292 294 294 291 288 291 288 280 282 282 280 276 275 274 280 289 296 296 296 294 301 302 305 306 307 309 309 309 310 310 311 312 313 313
295 295 289 296 301 300 300 302 298 293 288 282 280 279 285 286 290 290 291 292 293 290 286 290 286 290 289 281 284 286 285 280 284 282 280 283 281 290 290 292 290 293 294 294 289 289 292 283 284 292 292 293 293 292 284 288 292 293 293 291 290 285 281 280 281 280 280 273 281 286 294 287 298 298 303 303 307 307 307 307 307 309 309 310 310 311 311 311
293 290 288 299 301 301 301 299 295 291 286 280 282 282 288 285 288 291 292 292 289 289 292 290 291 286 290 290 290 284 285 285 284 282 283 284 284 291 291 294 290 292 294 294 291 293 285 289 281 287 293 293 287 290 288 288 285 287 288 285 288 289 288 288 287 283 280 275 278 285 285 288 295 305 306 306 308 308 308 306 307 308 309 310 310 310 310 310
296 289 289 300 301 300 299 295 289 285 283 285 286 285 286 285 288 290 292 293 291 295 291 290 289 286 290 287 287 292 287 285 285 282 284 284 286 281 291 292 293 292 294 293 291 293 287 286 283 284 287 287 286 290 291 291 291 287 287 284 284 283 284 280 277 284 284 280 278 284 281 285 295 308 309 308 309 308 308 308 307 308 309 309 309 310 310 309
291 283 286 303 304 300 293 284 284 287 283 281 281 285 284 291 288 289 290 292 292 290 296 292 291 291 290 290 291 290 290 284 286 284 286 282 287 287 290 294 294 295 292 288 289 294 289 287 287 283 283 284 290 292 294 296 294 291 291 287 288 285 283 280 277 278 283 284 287 284 286 287 301 306 310 309 309 309 309 309 307 308 309 309 309 309 309 310
290 285 298 303 302 298 289 281 285 283 282 286 290 288 290 289 288 289 288 291 289 293 291 290 290 290 293 293 293 291 291 286 286 284 286 287 288 290 292 293 295 294 294 289 291 291 304 287 285 285 287 288 291 292 294 295 295 291 292 291 290 287 287 284 281 280 282 282 282 280 283 290 304 308 310 309 309 309 309 309 308 308 308 308 308 308 308 308
290 287 291 301 302 299 287 277 278 281 284 287 288 287 291 290 289 288 288 290 289 290 292 291 293 294 292 297 294 290 293 281 289 287 286 290 288 294 293 293 295 293 291 289 288 295 287 287 286 281 281 282 284 289 289 292 293 290 288 290 291 290 290 289 290 286 284 283 284 283 283 289 302 309 309 308 308 307 307 308 308 306 306 307 307 307 307 307
289 292 293 290 298 296 285 285 283 282 286 285 287 286 287 288 291 291 290 289 292 291 292 290 293 294 292 295 295 293 293 290 286 293 293 292 292 295 294 294 296 291 294 296 303 298 289 286 285 280 275 273 273 275 276 280 285 288 292 290 291 291 290 288 283 284 282 286 288 285 287 296 303 306 306 306 306 306 307 307 307 307 306 306 306 306 307 306
287 282 285 289 294 293 290 292 289 288 285 286 284 289 289 287 291 293 293 291 293 293 293 292 293 295 295 294 293 291 291 294 291 290 291 292 296 295 295 295 295 293 300 308 305 297 289 291 288 282 281 277 277 281 286 286 286 285 288 290 292 291 292 290 286 282 282 281 283 291 295 296 298 301 302 304 304 303 304 305 304 305 305 306 306 305 305 305
290 282 283 282 289 288 287 289 289 289 285 291 282 290 287 288 290 292 295 289 294 292 293 293 295 291 290 291 289 291 293 293 295 293 293 294 296 297 299 297 302 310 308 306 304 294 290 287 289 288 287 287 291 293 294 291 289 290 289 289 290 290 292 290 285 282 285 287 286 295 299 296 297 301 302 302 303 304 304 304 304 304 304 305 305 305 305 305
284 288 287 290 284 280 282 284 289 288 289 290 286 290 288 288 289 287 293 294 295 295 291 293 294 294 293 292 292 286 290 291 291 287 295 294 295 297 295 298 298 306 309 300 300 293 288 285 290 291 291 293 294 295 295 294 294 294 294 294 294 295 292 287 287 288 289 284 285 296 299 297 299 301 303 303 304 303 303 304 304 305 305 305 304 304 304 304
293 290 285 293 284 288 288 289 291 289 288 289 287 289 287 288 287 290 290 290 293 293 293 284 291 294 295 296 293 288 291 284 284 293 293 293 293 293 291 293 296 298 296 297 294 293 291 284 291 291 290 294 294 295 295 293 292 293 293 293 294 293 293 290 289 291 290 287 295 298 298 298 302 302 303 304 305 305 304 305 305 304 304 304 304 304 303 303
286 287 284 293 291 290 292 291 291 290 287 290 285 289 289 289 288 290 293 292 285 290 295 292 293 295 296 296 295 290 292 292 292 288 295 294 291 294 293 294 293 296 295 294 297 294 291 284 292 290 286 290 293 294 293 292 291 288 291 292 293 293 293 294 291 293 295 296 298 298 297 297 301 305 304 305 305 305 304 303 303 304 303 303 303 303 303 303
296 298 295 290 287 289 292 291 290 289 284 288 286 289 290 291 291 294 293 297 294 291 293 291 294 294 296 296 295 294 296 296 296 296 297 297 290 298 293 293 297 291 295 294 294 292 291 288 288 285 282 284 292 292 290 289 289 287 289 291 291 292 291 292 289 294 294 294 296 297 294 294 300 304 304 304 303 303 302 302 303 303 303 303 302 302 303 303
298 300 300 294 286 291 287 290 289 286 281 289 291 290 291 292 295 294 286 294 298 298 296 295 295 293 293 294 293 295 298 298 299 300 300 300 300 299 298 299 297 294 291 292 292 288 287 286 282 282 282 282 289 291 288 284 284 282 281 287 291 292 293 294 296 297 297 300 295 291 295 300 302 303 301 301 302 302 302 302 302 303 303 303 302 303 304 305
Wind_Speed
11 11 11 11 10 10 10 10 11 11 10 11 12 13 13 13 13 13 13 13 14 15 15 15 16 17 17 18 19 19 18 10 14 8 5 15 7 16 11 9 7 7 8 3 3 1 3 1 1 2 0 1 2 0 4 3 2 1 2 4 5 6 9 2 3 3 3 5 7 6 2 9 7 3 6 12 15 14 13 14 13 16 11 13 16 17 17 16
11 11 11 11 11 11 10 10 11 11 12 12 11 12 13 14 14 13 13 14 13 14 15 14 16 16 17 18 19 19 14 9 12 13 20 7 11 13 16 16 15 9 9 3 4 3 2 2 4 2 2 1 1 3 2 2 3 4 2 4 9 7 3 1 2 7 4 7 10 7 5 4 8 11 3 10 7 17 15 11 18 17 15 15 16 17 18 15
11 11 12 12 11 11 11 11 11 11 12 12 12 12 13 13 14 14 14 14 15 14 15 15 15 16 17 18 17 17 11 9 7 13 18 16 25 17 17 16 15 8 12 4 4 5 6 1 0 1 1 1 2 5 1 4 1 5 4 6 11 1 2 3 2 9 8 7 9 7 6 1 3 2 4 9 7 17 18 14 15 19 18 16 15 17 16 15
11 12 11 12 12 12 12 12 11 11 12 12 13 13 13 13 14 14 14 14 15 14 14 15 15 16 18 18 17 11 6 5 5 8 4 12 18 23 22 16 12 13 8 2 4 4 1 2 3 1 1 3 4 3 2 4 1 2 4 8 3 1 3 3 3 7 10 9 7 4 5 6 2 3 7 13 12 4 10 21 23 22 22 19 18 17 15 15
12 12 12 11 12 12 12 12 12 12 12 12 13 13 13 13 14 14 14 14 14 14 14 15 15 16 18 18 17 5 4 3 4 2 3 6 9 18 20 16 11 10 9 3 1 1 1 1 0 1 2 3 3 1 4 3 4 2 6 4 4 5 6 9 6 9 11 7 3 1 6 4 5 9 11 14 16 10 12 8 19 23 23 24 21 17 15 15
12 12 12 12 12 12 12 12 13 12 12 12 13 14 14 14 14 14 14 13 14 14 14 14 15 16 17 18 12 2 0 2 2 4 5 7 8 13 14 12 9 6 4 1 3 0 1 1 4 1 2 3 4 5 3 7 3 5 6 4 5 6 6 4 2 7 5 1 2 4 2 3 3 3 5 1 4 5 6 12 14 18 19 18 17 16 15 14
11 12 11 11 12 12 12 13 13 13 13 12 13 14 14 15 15 14 14 13 13 13 14 14 15 17 16 15 7 2 1 10 5 7 7 8 4 13 14 10 8 5 4 3 3 2 3 3 3 4 1 3 6 6 8 1 4 7 8 3 7 9 10 11 5 9 9 7 4 2 3 5 2 7 2 9 8 14 13 14 16 16 16 17 17 14 14 13
12 12 12 11 11 11 12 12 13 13 14 13 14 13 14 15 15 15 14 14 12 13 13 14 14 15 15 8 3 1 0 9 17 5 4 4 4 11 13 6 7 4 4 8 5 6 2 3 6 2 3 4 2 6 5 6 4 8 10 7 5 4 6 8 5 8 8 7 4 4 4 2 3 6 5 9 15 17 17 15 15 15 15 14 16 16 14 13
13 12 12 12 11 11 11 12 12 13 14 14 14 14 14 14 14 15 14 13 12 12 13 13 14 14 12 3 1 2 9 12 4 4 2 1 3 8 11 4 4 8 5 3 6 4 3 5 5 4 3 3 5 6 3 2 5 5 11 7 7 6 6 6 4 9 6 2 4 6 2 4 12 11 10 10 13 17 18 16 15 15 14 13 12 13 13 13
13 13 12 12 12 11 11 12 12 12 13 14 15 14 14 14 14 14 13 13 12 12 12 12 12 13 8 4 2 2 9 5 1 5 3 2 3 4 4 3 9 7 5 6 3 4 6 6 6 3 1 7 4 7 1 3 5 2 4 8 8 9 7 3 5 6 4 1 1 4 1 6 2 7 3 3 14 15 16 16 14 14 12 11 11 11 12 14
16 13 13 11 13 12 12 12 13 13 13 14 15 15 15 14 13 14 13 12 11 12 11 11 10 9 5 5 1 9 6 5 5 7 7 4 3 4 6 6 8 7 10 4 8 10 10 7 3 2 2 5 4 5 0 3 2 5 6 5 6 8 5 2 1 5 3 0 2 1 7 5 2 5 11 11 11 16 19 15 14 13 12 12 12 12 11 11
17 16 14 13 12 13 12 13 13 13 14 14 14 15 15 14 14 14 14 13 12 11 10 10 10 5 5 4 6 11 2 3 7 7 6 4 3 6 6 8 10 10 9 7 8 8 8 8 0 0 4 4 3 5 5 4 1 5 5 4 5 6 7 4 7 4 2 1 4 2 4 8 3 9 16 15 12 13 17 16 14 13 14 14 13 11 9 9
17 17 17 14 12 12 12 12 13 13 14 14 14 15 15 15 15 14 14 13 11 11 11 10 7 3 4 4 13 15 12 11 10 12 12 4 5 8 7 5 12 9 11 9 6 6 7 5 1 2 4 2 3 2 5 8 5 7 2 3 3 3 2 7 2 4 6 3 5 6 3 9 0 10 16 15 14 14 14 14 13 12 13 12 12 11 9 7
16 17 17 16 14 13 13 13 12 13 13 14 14 14 15 15 16 15 15 14 13 12 11 10 4 4 3 8 9 4 8 11 14 15 13 6 5 9 10 7 10 9 6 8 7 5 5 5 4 6 1 3 4 3 9 5 4 3 5 1 1 1 3 3 2 6 7 5 6 6 5 7 3 8 14 15 19 18 15 14 13 13 13 12 12 11 10 6
15 17 17 17 15 14 12 12 12 13 13 14 15 15 15 15 16 16 15 13 13 11 11 8 2 2 3 11 9 14 19 10 8 14 14 5 4 8 9 7 8 8 8 8 3 3 5 3 2 2 3 3 4 4 6 2 2 1 2 3 1 3 4 5 3 5 5 2 6 6 4 7 4 14 13 14 15 17 16 14 14 13 12 12 12 12 11 8
16 16 17 16 17 15 13 11 13 13 12 14 15 15 15 16 16 15 15 13 13 12 5 2 3 5 3 10 6 7 4 3 8 13 12 8 6 8 8 4 6 6 6 5 7 3 3 3 4 4 4 4 3 2 5 5 5 3 4 3 1 3 5 2 2 4 8 4 1 8 5 3 0 9 14 13 16 17 17 15 14 15 15 13 12 10 10 10
16 15 15 17 17 15 13 12 11 13 12 12 14 15 15 15 16 15 13 13 7 5 5 2 2 6 2 5 6 5 3 7 6 2 3 8 11 10 3 5 5 7 5 3 3 0 1 1 1 2 4 4 3 3 3 4 5 4 1 3 3 3 2 2 6 2 5 5 2 4 5 4 1 15 12 13 16 16 17 15 15 14 12 13 13 12 11 10
17 17 16 16 16 15 11 11 11 11 12 12 11 12 13 16 18 14 8 5 4 4 3 4 3 1 11 9 7 5 1 4 2 5 5 3 11 7 5 3 1 5 4 2 2 2 1 2 2 5 2 4 4 3 6 7 7 5 1 0 3 1 2 6 4 3 4 5 8 2 6 10 4 14 16 14 14 17 18 17 17 15 14 13 12 12 12 11
16 16 15 16 16 16 13 11 10 10 10 10 12 14 17 18 7 1 3 2 2 1 0 4 6 6 1 3 8 5 5 1 4 3 3 4 3 4 2 3 3 5 3 5 2 6 1 1 1 3 8 7 8 8 8 8 5 6 4 3 3 4 4 3 5 4 6 5 8 5 6 11 7 15 13 15 14 16 16 15 13 13 13 13 13 12 11 10
16 16 15 15 16 16 13 8 6 9 9 4 4 5 3 1 1 1 1 3 7 8 1 5 13 5 11 8 3 1 4 5 1 4 5 3 3 2 4 2 3 3 5 7 2 7 4 7 9 10 7 7 6 7 8 8 6 4 2 1 5 5 6 3 3 5 5 4 9 9 7 8 6 14 13 10 6 9 15 16 14 13 13 13 13 11 11 10
16 16 15 15 13 14 13 9 8 6 6 3 2 4 2 4 2 2 2 8 12 13 13 7 14 15 13 3 8 12 11 9 2 3 7 3 3 5 4 4 3 5 4 7 6 1 6 7 10 6 8 8 8 7 6 4 3 4 2 2 5 2 6 4 5 5 5 6 7 6 7 10 5 9 15 11 7 10 14 15 15 14 12 12 14 13 10 8
15 14 15 15 14 15 13 10 6 5 5 1 2 6 4 6 2 2 2 5 7 16 14 14 9 15 15 16 12 7 5 6 15 9 6 9 5 8 1 5 4 7 3 5 4 3 9 11 6 8 6 6 5 7 7 8 8 4 3 2 3 7 3 6 5 6 5 8 9 5 9 12 6 8 15 17 13 10 14 18 18 17 15 14 12 12 12 9
15 15 15 14 13 17 10 8 6 4 0 2 6 9 11 7 5 3 3 5 10 9 12 13 11 15 19 11 6 3 7 7 7 7 4 8 8 12 5 7 5 4 4 7 11 5 6 9 8 6 6 5 4 5 7 7 5 4 4 2 9 2 1 5 5 6 5 8 7 7 11 10 1 4 9 16 15 13 13 13 16 17 19 17 17 15 14 13
15 14 14 14 14 14 9 9 2 2 5 7 11 15 8 2 1 6 4 3 5 6 10 11 13 12 16 8 2 13 10 5 5 11 7 11 11 9 5 9 6 5 10 11 10 9 4 1 8 6 7 8 6 4 5 6 8 4 5 6 9 5 5 5 7 4 6 6 4 5 3 3 1 7 7 7 14 14 8 8 8 6 7 13 13 11 12 15
14 14 14 13 14 14 10 1 1 6 1 5 12 17 13 11 6 4 3 3 3 6 8 9 7 7 13 4 4 2 6 5 10 6 3 11 11 10 9 4 5 10 8 9 7 5 7 5 8 8 7 6 6 7 8 7 7 5 5 12 14 6 4 4 5 6 2 5 4 10 2 6 3 8 13 6 7 8 7 11 9 10 11 12 12 12 10 8
14 14 13 13 11 11 6 2 4 1 5 8 7 5 7 9 7 5 2 1 6 3 5 6 10 10 8 4 9 6 1 6 8 10 9 10 10 9 5 7 6 11 10 10 9 3 4 4 10 11 8 7 8 7 7 8 7 4 8 12 11 6 5 4 8 1 3 7 8 5 9 5 2 6 10 10 12 11 7 9 10 11 10 10 10 10 10 10
13 14 13 13 10 7 5 5 0 2 3 8 6 9 6 5 7 7 1 2 3 5 8 5 9 2 6 11 11 9 3 7 3 6 10 13 12 7 10 6 5 2 5 2 1 7 7 10 9 10 10 10 8 10 9 9 7 7 6 5 5 7 6 8 7 7 8 1 3 3 6 6 1 4 11 16 16 13 11 9 11 9 9 10 9 10 12 12
13 13 13 12 11 12 4 1 3 2 8 2 7 5 3 5 10 4 1 1 3 5 6 6 6 2 2 11 13 9 7 3 4 6 8 11 9 10 7 8 9 9 8 7 13 2 9 8 12 12 10 10 12 11 8 9 8 9 5 6 5 7 8 8 6 7 5 1 4 5 2 4 1 3 2 14 15 11 13 13 12 10 10 10 9 11 10 9
12 12 12 12 10 12 6 2 2 8 2 8 10 12 7 4 11 4 2 2 4 2 4 6 3 4 3 12 10 9 6 1 2 2 4 10 8 4 10 7 5 8 6 9 5 3 7 9 12 13 11 11 8 9 11 10 8 13 4 3 3 2 3 4 6 6 3 1 5 7 4 4 1 5 8 5 14 16 13 12 12 12 13 11 11 10 10 8
12 12 11 11 4 6 6 2 9 12 10 11 10 10 10 2 3 2 2 3 2 1 3 1 6 6 8 12 9 13 7 2 2 2 3 4 9 3 4 3 3 9 8 5 6 7 5 8 7 8 10 9 10 9 11 10 13 1 3 6 4 1 0 1 2 2 5 2 8 9 6 7 2 7 12 13 11 14 12 7 5 8 8 8 9 11 9 9
12 11 10 7 5 3 4 4 11 10 10 10 10 7 5 3 2 2 3 7 2 2 2 3 5 7 12 13 10 8 8 3 2 3 4 2 3 4 3 6 3 1 3 5 7 9 6 5 9 4 8 8 9 8 7 10 10 7 3 4 1 5 1 2 2 2 4 5 11 5 7 6 7 6 8 3 3 15 22 19 18 16 13 11 12 10 9 9
11 10 9 6 4 5 6 6 1 3 6 7 7 3 4 4 5 5 6 4 1 2 1 5 3 7 11 8 9 13 9 3 4 3 8 7 4 8 8 8 9 6 6 8 9 4 11 10 3 7 8 14 8 8 7 7 9 9 5 2 7 2 2 4 1 3 4 6 6 2 6 1 1 2 1 4 3 11 10 20 21 17 16 13 11 11 9 10
10 8 8 6 7 4 10 9 8 7 9 11 2 1 4 3 7 7 5 6 3 5 1 2 6 11 10 9 9 10 6 5 4 3 8 7 6 8 5 3 5 7 5 3 4 6 8 3 6 6 6 10 10 10 6 7 9 8 9 6 5 4 3 3 2 1 1 6 6 1 6 4 1 1 6 6 7 13 6 2 10 14 15 14 13 10 10 10
9 7 3 4 8 8 3 4 6 6 7 6 2 3 3 5 4 1 3 2 6 6 6 1 5 6 12 9 9 10 7 7 4 3 8 7 8 7 9 9 6 8 1 3 6 9 8 9 10 9 6 8 11 11 11 5 7 10 4 9 7 6 4 3 3 5 6 7 3 3 4 3 4 1 7 1 12 13 7 8 10 12 12 10 9 10 11 11
6 4 3 4 6 5 5 8 8 6 5 2 2 3 9 7 2 2 1 6 5 5 9 12 5 11 9 5 4 9 5 5 6 2 8 9 9 7 11 11 7 3 4 4 4 2 12 7 7 8 3 8 10 8 8 8 4 4 4 7 6 7 6 1 6 5 3 1 1 6 2 3 2 3 5 6 11 12 13 13 13 11 10 11 11 10 10 10
1 3 4 2 0 2 4 7 6 5 4 0 4 3 6 3 2 5 4 7 7 9 13 12 1 9 7 5 5 9 11 1 6 2 2 8 7 9 8 5 8 9 6 8 4 5 4 6 3 6 7 8 12 8 5 8 8 5 6 9 7 6 6 1 0 0 3 6 1 1 2 1 2 7 9 9 11 10 10 9 9 10 11 11 10 9 10 10
5 3 2 3 3 4 6 5 4 3 1 1 3 3 4 5 6 7 7 11 13 12 7 5 1 2 6 6 4 11 10 4 2 5 3 4 4 8 9 8 7 10 7 7 3 3 7 5 5 5 10 8 6 13 7 9 7 4 8 7 2 3 6 5 3 1 1 5 1 0 5 5 4 2 3 10 11 8 10 10 8 8 9 9 8 9 9 10
2 1 1 2 7 7 8 6 2 1 1 1 1 3 2 7 3 8 8 12 11 10 5 2 3 4 7 6 7 11 9 10 4 5 3 8 2 6 7 6 7 9 11 6 1 2 2 2 4 6 7 7 3 8 5 3 2 9 7 5 6 4 5 3 4 2 2 1 0 1 6 4 1 3 6 12 13 10 9 9 10 10 7 7 9 10 10 10
2 1 1 5 8 9 7 3 2 2 2 3 1 5 4 9 7 9 10 11 10 10 3 2 1 1 1 4 4 10 10 9 4 5 4 4 4 8 10 7 7 11 9 10 5 3 2 2 2 2 9 5 5 6 8 8 2 2 4 3 1 5 2 4 6 4 6 3 3 1 4 2 1 5 14 19 12 14 12 11 8 8 6 6 7 8 9 9
3 2 2 1 5 6 4 3 2 2 2 4 4 7 5 9 8 9 10 10 7 5 2 4 0 2 2 1 1 3 11 11 7 3 4 3 6 3 11 10 4 10 13 8 6 4 3 2 1 3 3 7 7 6 10 9 6 3 2 2 1 0 2 5 1 4 4 4 5 5 2 3 2 2 4 8 10 11 11 11 8 7 7 7 6 7 7 8
1 1 2 4 3 3 4 4 3 2 1 2 4 6 7 6 7 12 13 15 11 7 8 6 3 3 2 2 1 2 1 8 8 4 4 5 10 2 9 9 8 10 11 9 9 3 1 1 6 3 2 8 4 4 6 9 9 7 7 6 6 4 3 4 6 2 3 5 4 7 5 4 2 1 8 12 11 11 12 12 11 9 9 8 6 6 6 7
3 2 2 5 9 3 5 4 1 1 1 3 4 4 5 4 9 12 12 13 10 8 6 5 6 5 5 2 1 0 0 3 8 5 3 7 8 6 6 13 11 9 9 9 11 4 4 3 2 3 4 2 3 3 7 11 8 6 8 3 6 4 5 2 3 4 1 1 6 5 8 5 1 3 8 11 11 13 13 14 11 10 10 8 7 7 7 8
3 2 2 3 7 1 4 2 2 2 4 3 3 9 9 9 10 9 10 11 9 7 5 3 5 2 4 3 2 1 2 1 7 7 4 8 11 18 6 16 13 12 10 4 5 4 4 1 3 2 3 5 3 4 3 4 8 4 2 4 5 3 5 6 5 5 5 2 2 1 3 1 2 1 9 10 9 11 10 13 14 10 9 10 10 9 9 7
2 2 2 4 3 3 2 3 3 5 4 7 8 8 6 7 8 10 9 13 5 7 2 3 2 3 2 5 1 2 4 2 3 7 6 5 6 16 10 13 16 10 10 6 9 5 5 2 5 1 1 1 5 2 2 1 3 3 3 4 5 4 5 4 2 1 3 4 8 8 5 2 2 6 10 11 12 12 11 11 13 12 10 10 11 9 7 8
1 1 3 4 3 1 3 1 2 1 4 5 5 7 7 5 7 12 13 15 9 9 3 6 4 2 2 4 1 3 3 1 1 1 1 4 5 10 14 11 19 7 9 7 9 7 5 3 4 4 5 5 4 6 7 5 7 0 1 4 4 6 4 2 5 3 5 1 3 6 3 1 5 7 13 14 14 12 10 11 9 12 11 11 10 9 8 6
1 3 2 1 1 1 4 3 3 4 4 3 2 4 3 5 9 12 15 16 13 12 8 8 9 3 1 5 3 3 2 2 1 1 2 3 3 3 9 13 18 7 12 14 12 7 3 1 3 5 7 6 3 4 4 6 3 4 1 4 2 3 5 4 5 4 8 3 3 2 12 12 11 13 15 14 14 15 15 14 14 12 11 10 10 8 7 7
1 2 2 3 2 3 6 4 6 4 3 1 1 2 4 8 9 8 6 3 4 4 4 4 3 5 4 5 3 3 3 1 4 3 3 2 3 5 4 10 6 3 17 15 13 6 3 4 3 6 6 7 2 4 5 5 4 3 2 1 2 4 3 3 4 6 5 9 1 0 16 18 14 12 13 14 14 14 13 14 14 13 11 10 9 9 9 9
3 2 1 1 1 4 3 7 7 8 10 7 4 4 6 8 8 5 6 6 10 9 3 4 3 10 5 1 3 1 6 2 4 3 3 9 4 7 4 4 4 2 10 5 13 6 6 6 3 4 5 6 7 7 7 9 6 4 6 6 5 2 5 4 4 4 6 6 8 13 16 17 17 18 18 18 19 19 17 15 13 13 11 11 12 11 10 9
1 1 1 3 1 3 5 5 4 6 10 9 5 6 8 8 9 8 4 5 7 3 4 2 5 7 1 6 5 2 5 3 5 3 4 5 5 4 6 5 4 6 6 4 2 2 7 1 2 3 3 5 5 8 8 10 4 7 8 6 3 4 2 3 3 3 5 3 11 20 14 11 15 14 15 12 10 12 12 12 12 13 13 13 12 12 10 8
2 1 1 1 4 4 4 5 5 7 7 10 4 6 8 6 7 5 5 1 2 4 7 5 3 6 5 8 5 4 3 1 1 4 3 3 3 4 1 2 4 6 5 2 1 2 6 3 5 3 4 4 6 4 9 8 8 5 4 8 9 4 5 4 2 3 9 8 11 16 11 8 3 8 9 10 11 12 12 13 14 13 13 13 12 10 9 9
2 2 2 3 3 3 3 2 3 2 1 4 2 6 6 6 4 4 2 4 6 3 3 3 5 3 2 7 6 3 3 2 4 3 3 3 1 2 2 3 1 0 4 3 3 2 5 2 2 3 5 2 5 4 4 6 7 8 6 9 10 10 7 5 3 2 5 10 13 12 10 5 8 12 10 10 13 15 16 14 13 11 12 13 12 10 9 8
3 4 3 2 2 3 4 4 3 2 3 0 1 6 4 6 6 7 1 2 6 6 5 5 4 3 3 6 3 4 7 5 5 5 4 1 1 1 2 2 4 3 1 3 0 3 1 5 3 4 6 1 5 1 6 6 6 5 4 3 3 3 1 1 3 5 3 19 14 10 11 12 17 17 16 13 13 13 14 13 13 12 11 12 13 12 11 10
Wind_Direction
319 318 320 317 322 317 319 318 320 320 321 321 324 324 324 323 320 319 318 318 316 318 320 324 322 322 326 328 328 332 333 331 313 309 251 239 206 230 240 224 214 214 189 207 268 317 305 202 248 267 42 76 255 204 226 187 186 154 206 194 238 220 243 189 210 238 282 296 285 331 284 112 115 98 131 77 69 93 87 80 69 65 72 104 117 121 119 125
314 315 316 316 316 315 314 317 316 316 318 318 325 324 326 322 321 322 324 324 324 319 319 321 321 324 326 327 331 330 337 311 293 283 238 222 213 221 233 242 253 253 136 210 211 205 177 247 227 161 139 255 214 224 153 262 156 171 203 159 230 216 230 219 266 283 309 296 305 283 306 147 166 145 192 98 124 102 84 83 96 93 96 102 117 125 126 130
311 311 311 311 312 311 311 310 312 314 315 321 318 321 320 320 319 318 319 321 320 321 320 321 323 322 326 327 325 336 329 314 281 259 267 226 230 226 231 234 241 181 165 174 214 180 187 183 222 127 211 218 263 234 174 257 158 216 164 216 233 135 283 268 284 284 281 280 291 316 316 79 172 129 165 119 131 108 117 120 112 120 124 129 129 133 134 136
307 307 309 309 308 309 311 310 311 311 313 313 313 315 317 318 318 320 318 316 319 321 319 320 324 327 326 326 330 328 345 272 276 250 232 237 213 212 220 220 227 175 188 183 153 174 202 346 351 147 290 204 277 227 269 250 184 258 161 223 234 219 315 269 270 279 292 284 275 287 306 32 342 134 123 128 96 77 146 149 145 145 142 140 142 142 141 139
300 304 305 307 306 307 308 308 306 309 309 311 310 312 315 316 317 318 318 315 315 320 322 321 327 325 327 325 322 343 303 0 265 229 258 278 210 208 207 204 183 173 174 169 136 277 245 233 59 246 201 247 240 289 244 257 217 311 220 210 219 283 282 262 267 285 276 314 242 320 30 327 303 100 138 145 137 182 171 174 141 141 141 144 146 147 142 143
292 296 300 299 302 304 305 306 305 305 305 308 310 310 311 314 314 316 314 315 316 317 320 324 326 328 328 325 313 252 68 182 304 304 344 316 214 191 189 175 168 151 159 177 148 134 151 203 159 215 227 187 233 194 257 219 181 243 279 274 238 231 238 278 273 258 243 263 348 336 331 357 54 65 163 66 107 106 120 135 135 133 136 136 136 140 143 145
284 288 292 295 296 300 303 302 304 304 303 304 303 308 310 313 314 313 312 313 315 318 320 326 329 328 330 326 295 142 162 276 332 264 11 356 151 141 150 140 140 134 145 168 173 201 191 169 161 216 216 245 253 212 235 260 187 216 249 248 243 230 232 248 249 293 296 323 313 262 344 46 327 73 341 94 102 111 116 126 126 128 131 136 137 141 142 147
279 280 284 289 291 295 300 300 301 302 302 301 301 304 307 311 314 313 315 315 313 316 322 324 328 330 337 340 340 164 205 253 249 263 342 15 87 117 126 126 145 140 160 200 168 206 167 181 204 177 206 205 223 196 230 229 218 218 243 235 249 227 231 247 230 254 266 290 298 18 31 352 76 118 98 97 118 120 124 127 129 131 134 138 142 143 143 144
269 276 277 282 286 289 292 296 296 299 298 298 299 301 307 313 312 313 310 313 314 317 319 324 329 333 339 273 258 17 241 233 245 342 186 317 100 122 131 139 164 167 202 191 201 193 151 242 209 183 239 218 238 245 253 190 302 215 222 225 234 231 224 224 192 222 198 244 295 324 32 84 100 79 57 115 116 125 131 130 133 135 137 141 138 137 139 134
264 269 276 276 279 285 287 291 294 293 295 295 297 299 304 306 310 309 309 309 312 313 319 325 329 338 333 328 250 217 265 217 260 258 288 303 102 133 175 138 157 179 176 219 182 182 206 220 179 175 226 286 248 252 238 173 231 237 240 227 232 238 235 230 174 244 257 208 282 267 278 124 174 96 108 119 129 131 128 131 135 133 129 123 127 129 131 132
272 264 267 272 272 280 285 286 290 291 290 295 296 299 299 302 305 305 302 303 308 308 316 324 335 335 338 342 218 214 242 113 23 27 11 343 287 171 209 171 169 167 191 201 201 196 224 238 244 358 319 235 308 296 227 226 261 280 266 291 273 269 245 239 151 235 239 329 186 221 292 115 179 108 153 154 149 139 131 136 135 130 123 123 124 124 128 130
277 269 262 265 269 273 279 284 288 289 290 292 296 296 296 298 301 301 300 300 300 307 313 318 331 321 297 268 238 228 23 62 340 338 330 320 257 258 237 177 174 178 176 195 220 211 219 239 77 156 224 20 322 322 269 275 288 267 223 251 275 288 276 218 224 211 197 240 190 114 357 317 80 152 155 148 147 140 132 135 135 124 123 124 122 121 119 122
259 264 261 256 259 269 275 282 285 289 291 292 294 295 294 294 295 298 297 297 298 300 306 311 322 279 303 303 236 245 313 310 328 326 317 299 286 283 262 224 187 182 183 190 221 213 215 227 188 240 250 294 275 249 285 326 310 323 240 181 333 345 280 255 191 160 175 215 203 92 267 279 343 155 147 146 144 137 130 133 130 124 121 119 121 116 106 100
274 264 262 256 256 263 270 275 280 284 289 292 292 294 290 290 294 295 296 292 297 297 299 307 318 294 268 254 271 332 308 305 314 316 286 292 312 289 302 233 210 198 188 193 221 205 212 220 199 230 269 234 265 308 319 315 311 284 281 61 176 342 270 282 190 141 172 216 171 128 208 271 303 166 152 153 148 146 139 138 132 123 121 124 122 119 112 100
286 268 261 260 256 257 263 268 277 284 290 293 293 291 293 296 294 293 293 295 292 296 296 305 291 313 234 265 275 271 252 260 274 260 259 266 249 300 280 236 221 205 197 203 212 212 212 222 186 245 258 212 231 270 286 325 336 284 351 288 321 152 277 291 301 139 175 242 150 124 217 236 244 167 162 152 151 140 135 140 131 127 128 127 122 119 117 118
296 277 254 252 254 252 258 267 271 280 284 290 291 289 291 292 292 291 291 288 289 281 290 275 218 192 305 276 258 317 296 159 242 232 247 195 209 223 249 283 222 211 194 225 225 229 189 168 207 198 248 277 270 261 302 337 328 338 152 267 246 161 241 331 288 177 190 201 124 165 209 267 262 180 159 157 153 144 137 140 134 133 132 126 125 122 119 119
301 296 271 254 252 249 250 261 271 278 286 290 292 292 296 294 291 285 280 288 285 266 203 241 147 171 186 235 329 295 223 216 239 250 221 184 196 215 250 275 222 208 208 248 250 321 216 169 220 213 206 212 163 172 252 286 294 300 351 195 204 180 227 248 296 301 215 188 241 204 203 217 192 166 165 162 155 146 140 140 136 138 133 133 132 131 132 133
299 300 281 257 250 251 249 251 268 280 285 290 294 301 298 294 283 282 282 262 240 237 222 228 260 231 274 268 280 222 320 249 194 231 234 173 185 208 209 247 239 201 175 235 261 226 137 223 178 219 246 198 164 157 163 224 197 222 267 304 302 288 182 205 173 260 155 225 213 216 209 240 111 168 158 165 164 151 147 145 145 143 139 137 136 138 139 141
296 298 297 282 256 250 242 245 256 275 289 299 304 307 294 279 282 194 232 217 132 68 3 207 165 164 218 229 241 301 281 246 270 196 247 189 168 185 191 209 275 171 194 170 267 182 173 235 180 195 220 199 200 184 186 212 181 209 172 193 196 209 256 218 244 274 170 206 227 185 209 231 134 167 161 159 170 158 149 134 136 139 138 135 137 141 144 147
295 297 298 283 252 243 249 244 258 268 285 315 331 322 332 48 357 326 191 217 233 218 225 176 206 290 314 276 166 176 263 276 331 236 238 209 141 158 236 183 225 181 172 187 222 207 132 194 204 210 208 207 194 181 195 214 199 223 205 211 243 229 254 252 238 238 204 192 219 213 217 229 154 163 155 151 158 153 138 139 144 148 142 138 140 136 140 146
295 297 299 293 269 242 242 233 244 255 278 288 316 319 265 187 199 233 187 222 225 243 254 243 205 226 240 338 323 8 11 324 217 274 222 167 180 119 224 147 183 211 206 180 173 244 154 208 226 206 202 196 198 187 194 225 245 219 238 270 290 254 248 255 247 244 221 184 241 210 211 242 176 165 157 136 151 160 148 145 149 149 140 138 130 129 132 133
295 294 290 296 277 244 239 235 237 252 257 180 244 256 257 242 77 85 324 292 234 230 240 245 233 251 255 264 274 317 300 275 300 276 256 168 190 166 238 173 162 201 211 177 183 199 202 217 214 205 206 198 202 193 195 205 236 232 210 255 291 265 250 277 260 260 235 193 237 170 199 238 184 171 161 149 163 172 165 161 160 148 145 140 134 130 132 134
292 292 294 291 274 242 242 262 252 234 115 199 234 233 248 254 299 308 298 273 279 236 222 228 240 247 261 261 253 232 257 237 247 269 226 182 169 196 154 188 180 183 205 188 191 166 206 232 217 198 183 174 199 199 200 224 232 218 245 237 245 226 308 297 299 263 212 194 204 177 197 238 149 107 172 155 159 172 181 163 152 152 148 149 147 145 144 147
288 287 290 292 293 254 216 241 257 349 228 225 245 235 230 235 333 354 345 248 284 265 199 208 208 234 246 226 210 176 211 234 205 256 238 187 187 170 192 187 175 190 211 202 199 191 206 124 183 190 189 183 201 204 186 202 243 229 198 222 249 236 227 189 260 285 241 220 80 120 168 288 71 109 164 182 154 145 124 104 95 75 109 127 128 131 140 146
287 287 288 291 291 252 214 357 360 230 174 221 243 245 240 245 247 263 319 287 259 262 198 212 181 229 240 147 229 278 188 249 237 247 213 190 171 164 207 157 165 213 209 201 199 195 235 239 166 187 198 188 189 220 210 166 223 251 223 217 232 224 245 264 283 323 321 265 254 144 106 234 290 155 151 133 89 102 123 126 124 129 136 135 130 129 125 122
281 283 285 287 299 242 161 96 239 176 190 228 224 236 217 221 206 191 175 8 296 251 100 216 144 252 151 213 144 209 61 283 221 225 231 200 182 180 151 206 182 200 201 187 199 206 192 214 174 189 191 202 202 212 216 159 213 196 250 216 226 227 235 245 262 19 269 211 231 167 161 246 350 149 151 145 127 125 122 138 141 141 139 137 135 135 132 134
285 285 284 284 287 187 111 230 352 199 215 260 239 244 228 210 149 168 105 334 311 203 171 142 166 283 146 163 162 138 113 256 196 207 229 184 181 175 180 198 162 219 181 158 137 218 181 200 188 188 191 198 207 215 220 175 179 232 229 188 182 206 215 235 244 225 235 254 337 193 163 153 115 241 167 147 134 137 142 148 145 146 140 145 144 138 141 144
282 282 280 280 280 191 169 14 346 262 238 318 343 345 301 265 137 164 30 120 270 137 149 179 233 156 194 154 156 168 210 216 157 223 203 171 164 173 194 194 183 181 179 178 206 124 176 194 190 193 196 200 210 209 217 173 187 232 223 161 177 182 209 227 222 236 224 180 281 217 221 85 219 199 137 135 127 150 156 158 155 150 150 153 140 141 143 142
280 277 275 279 280 218 199 233 310 261 323 328 320 317 313 327 147 164 130 147 231 127 86 130 94 124 121 142 152 191 250 226 202 149 134 161 189 136 196 192 168 188 208 202 192 169 201 200 195 195 188 210 209 209 213 180 192 246 213 189 177 149 204 200 220 218 288 83 239 219 179 115 145 155 134 165 150 158 165 163 158 157 162 159 147 144 140 137
279 273 274 277 280 216 204 262 257 260 282 287 292 298 311 321 93 194 92 275 227 214 202 146 192 187 150 149 160 199 216 277 266 107 148 159 187 125 200 134 160 185 214 213 200 214 198 202 188 191 201 200 201 213 205 196 218 252 174 232 242 77 88 334 179 140 55 279 252 209 204 132 169 209 168 162 190 162 151 145 146 147 161 158 145 142 144 134
275 274 271 264 207 159 137 225 245 254 260 267 279 299 305 38 142 184 207 234 295 80 67 155 170 131 148 154 156 207 215 249 267 179 143 165 197 174 134 183 209 223 204 208 222 227 251 208 202 206 182 205 190 209 216 202 220 217 224 190 214 313 324 335 316 37 161 258 259 223 202 154 138 226 204 190 2 170 155 164 166 169 167 149 143 142 133 126
273 268 269 253 181 131 169 224 201 332 310 290 282 305 95 121 358 209 212 346 48 223 153 179 149 147 160 164 163 182 184 202 263 189 168 180 170 181 196 185 167 172 218 189 217 202 235 229 213 210 190 192 188 195 227 213 217 214 212 121 151 256 116 247 140 246 181 196 251 175 156 81 153 176 243 290 194 178 191 166 167 157 149 145 140 135 129 124
274 263 265 259 206 152 225 266 316 324 327 306 238 107 89 126 205 227 266 331 45 10 315 222 150 161 162 149 193 185 191 203 194 245 160 182 150 209 215 176 186 155 174 204 158 184 252 276 213 216 197 195 180 182 192 209 220 198 198 160 140 171 174 193 255 210 286 277 259 210 193 191 277 262 353 286 195 165 127 73 146 143 138 137 139 128 126 122
262 267 263 213 199 204 229 285 285 318 304 328 149 61 76 210 236 145 268 321 285 339 300 63 152 151 154 172 185 174 190 241 146 218 173 174 172 184 216 226 161 171 153 153 177 184 200 236 235 181 221 176 188 191 183 185 182 213 122 153 172 141 156 195 189 173 189 203 254 3 139 245 111 293 335 296 143 118 103 106 116 111 117 120 119 119 115 114
263 285 246 205 208 228 241 267 275 279 292 32 111 137 181 209 330 286 117 337 336 319 338 315 200 158 168 178 169 186 191 199 216 195 185 161 193 190 196 210 199 127 143 129 221 131 214 231 258 199 224 179 189 191 173 162 182 215 160 93 128 207 135 148 202 146 201 175 285 9 47 341 50 318 71 73 92 104 127 131 133 131 132 130 125 125 122 118
187 54 96 104 283 269 240 253 261 262 277 215 130 180 210 203 197 12 23 339 327 345 327 318 172 157 156 172 175 175 214 111 206 192 256 184 175 188 203 207 194 191 160 186 194 191 178 231 240 173 211 194 190 167 201 162 189 222 124 200 200 154 108 95 75 181 109 66 353 246 101 52 158 47 62 77 84 96 112 115 128 132 135 129 126 126 124 121
94 115 107 40 296 251 248 246 249 299 59 58 120 194 224 275 273 296 351 343 325 319 320 359 21 101 158 182 166 180 190 197 260 161 252 150 172 193 193 214 173 186 202 144 265 188 148 236 269 168 202 237 193 173 179 188 152 126 201 229 132 125 115 127 211 338 44 153 224 287 150 179 156 165 82 76 84 96 110 123 115 121 123 123 126 126 126 123
93 47 66 206 236 249 253 248 235 290 21 67 82 221 177 252 268 335 328 319 317 330 329 344 265 18 170 149 184 179 175 181 210 160 241 196 269 196 185 203 189 195 195 191 127 274 142 299 239 199 201 201 227 155 174 232 156 176 199 189 131 208 230 309 103 222 191 152 211 332 165 193 222 139 129 132 137 138 126 125 128 132 131 126 131 128 124 121
57 19 332 240 221 225 235 234 209 77 60 96 224 234 258 265 305 309 313 304 303 310 339 270 45 345 179 169 175 182 163 193 176 191 167 211 196 198 196 184 202 199 198 181 211 253 39 165 296 241 201 187 160 154 205 200 5 67 113 138 196 109 155 127 196 173 119 192 99 219 180 227 241 146 183 157 160 146 137 137 127 126 120 124 130 126 122 116
26 35 3 329 189 198 186 162 76 48 99 190 210 236 313 312 309 307 295 314 315 336 256 299 316 312 311 174 105 157 173 186 170 224 184 186 208 232 202 187 190 192 205 187 216 159 266 132 240 280 261 154 211 191 203 175 151 99 121 231 144 175 221 123 99 136 174 166 150 125 216 263 260 138 188 157 135 137 135 129 122 122 116 116 113 113 112 109
302 80 344 332 338 157 102 80 78 119 129 301 305 272 271 274 310 301 300 296 297 259 263 272 298 254 294 4 360 40 180 187 179 192 177 183 187 162 231 198 185 198 195 203 226 166 156 165 207 293 144 192 228 240 141 159 167 163 164 192 165 103 127 155 260 3 103 110 164 149 210 266 251 243 169 153 145 134 136 131 129 126 121 119 112 102 106 103
8 32 345 327 343 113 97 94 289 113 141 231 212 207 255 270 278 283 301 294 281 277 254 266 262 241 250 260 120 64 134 195 188 181 188 170 210 204 213 208 192 197 187 193 206 194 157 164 147 235 207 203 254 245 179 164 150 154 147 205 161 132 108 109 172 273 357 69 113 143 132 241 235 257 173 153 153 149 141 135 129 131 128 122 114 113 109 115
33 336 307 306 326 204 107 99 199 193 211 237 258 259 259 266 267 289 293 287 295 252 263 214 231 218 256 137 66 263 220 234 186 196 189 187 200 209 198 193 194 198 192 184 183 240 142 133 195 273 285 298 333 309 238 172 140 124 167 142 122 159 169 180 171 185 170 160 100 24 74 258 304 220 153 138 137 133 133 133 132 131 128 125 125 126 127 119
14 11 323 302 357 313 145 143 191 232 252 273 260 270 250 250 265 278 268 272 279 306 336 330 293 172 267 96 229 280 311 33 289 187 223 187 214 212 208 190 188 201 178 190 184 192 192 249 138 146 38 356 349 7 294 324 137 157 175 189 168 148 178 189 163 141 181 217 172 135 173 212 215 151 137 136 137 139 139 134 132 130 131 133 130 130 132 131
151 227 342 324 319 89 190 211 97 170 243 265 273 257 256 265 247 250 256 268 265 269 354 276 261 98 355 90 255 270 265 164 269 333 231 220 227 193 199 196 188 194 183 171 183 163 195 200 115 157 149 150 182 196 215 219 198 309 130 118 144 163 161 124 229 197 202 301 114 111 90 133 139 148 146 148 145 140 139 131 130 130 137 137 132 129 128 111
359 92 29 292 309 211 288 306 296 278 278 279 293 266 251 263 274 258 244 255 241 255 241 259 292 89 336 6 17 318 313 306 92 315 41 343 318 189 182 194 187 178 172 173 165 141 168 176 148 145 148 171 201 211 241 136 125 164 227 144 163 123 166 146 118 121 191 186 68 218 141 143 151 161 155 157 150 147 149 149 147 144 144 138 130 122 121 121
306 93 155 150 16 276 277 320 290 280 258 265 279 281 230 251 271 289 256 269 254 225 223 222 92 65 314 48 333 288 278 313 357 85 7 308 2 341 326 143 111 95 177 170 161 110 83 175 214 142 157 173 176 73 34 86 96 41 66 334 25 67 128 148 162 217 171 108 94 237 149 143 171 163 156 150 151 150 151 150 147 143 143 136 124 120 119 119
54 30 44 209 166 198 223 276 239 257 264 267 262 263 267 290 303 304 291 249 291 279 147 352 51 108 245 336 215 259 322 333 19 25 320 17 26 345 335 28 102 358 164 176 159 130 139 165 242 134 160 126 118 92 88 79 83 101 74 59 40 2 107 127 219 221 149 184 191 177 169 152 170 174 169 166 164 161 156 150 141 137 131 126 125 124 126 127
321 303 258 289 50 251 198 237 234 227 249 242 258 268 281 279 281 277 299 315 339 2 52 89 5 73 353 25 53 72 357 43 350 351 41 356 41 323 6 339 353 8 85 137 108 140 100 208 196 145 109 51 60 93 82 95 119 61 41 24 359 38 38 161 190 180 200 223 155 162 175 165 165 162 158 152 138 132 133 132 135 137 135 130 130 130 134 133
338 59 300 273 213 264 281 275 245 233 240 242 242 254 268 265 279 321 309 285 342 4 16 62 38 65 20 49 36 67 339 351 13 33 357 50 352 23 13 136 276 320 52 108 171 357 116 234 180 138 76 19 358 30 77 84 93 91 36 21 16 5 84 54 105 57 79 48 128 137 125 104 45 113 117 124 125 126 131 142 144 140 136 136 134 137 138 137
292 232 225 304 313 262 205 246 262 214 201 3 329 306 298 348 319 312 298 29 72 66 27 30 343 37 25 67 47 357 315 332 318 350 330 59 67 279 38 306 324 359 20 29 32 337 72 159 50 89 91 333 330 13 92 79 74 87 49 27 11 16 35 348 29 297 111 131 130 122 117 125 134 127 120 132 140 145 148 149 144 144 142 137 137 138 139 143
298 257 239 244 285 314 4 301 296 45 25 359 355 301 321 311 327 2 357 8 32 51 28 24 348 73 10 61 27 287 296 294 280 289 305 293 234 217 34 54 13 89 77 49 352 61 108 119 90 107 91 292 284 318 82 60 43 5 343 310 313 316 217 224 5 28 139 139 132 147 197 168 151 145 140 150 152 150 149 152 141 140 143 143 141 141 143 151